Burlington, WA

4:05 PM PDT on October 17, 2017 (GMT -0700)
Skagit Regional

Weather History for KBVS - December, 2012

Change the Weather History Date:

Monday, December 3, 2012

  Actual Average Record
Temperature  
Mean Temperature 46 °F -  
Max Temperature 51 °F 48 °F 60 °F (1958)
Min Temperature 42 °F 37 °F 26 °F (1972)
Degree Days  
Heating Degree Days 18    
Moisture  
Dew Point 46 °F    
Average Humidity 92    
Maximum Humidity 100    
Minimum Humidity 82    
Precipitation  
Precipitation 0.00 in - - ()
Sea Level Pressure  
Sea Level Pressure 29.86 in    
Wind  
Wind Speed 9 mph (SE)    
Max Wind Speed 16 mph    
Max Gust Speed 29 mph    
Visibility 10 miles    
Events      
Averages and records for this station are not official NWS values.
T = Trace of Precipitation, MM = Missing Value Source: NWS Daily Summary

Daily Weather History Graph

Daily Weather History Graph

Search for Another Location

Airport or City:

Trip Planner

Search our weather history database for the weather conditions in past years. The results will help you decide how hot, cold, wet, or windy it might be!

Date:

Astronomy

Dec. 03, 2012 Rise Set
Actual Time 7:43 AM PST 4:15 PM PST
Civil Twilight 7:07 AM PST 4:52 PM PST
Nautical Twilight 6:27 AM PST 5:31 PM PST
Astronomical Twilight 5:49 AM PST 6:09 PM PST
Moon 9:22 PM PST (12/3) 10:57 AM PST (12/3)
Length of Visible Light 9h 44m
Length of Day
8h 32m
Waning Gibbous, 77% of the Moon is Illuminated
Dec 3
Waning Gibbous
Dec 6
Last Quarter
Dec 13
New
Dec 19
First Quarter
Dec 28
Full

Hourly Weather History & Observations

Time (PST) Temp. Windchill Dew Point Humidity Pressure Visibility Wind Dir Wind Speed Gust Speed Precip Events Conditions
12:15 AM 48.2 °F - 46.4 °F 93% 29.76 in 10.0 mi South 8.1 mph - 0.00 in   Overcast
12:35 AM 48.2 °F - 46.4 °F 93% 29.75 in 10.0 mi South 10.4 mph - 0.00 in   Overcast
12:55 AM 48.2 °F - 46.4 °F 93% 29.74 in 10.0 mi South 10.4 mph - 0.00 in   Overcast
1:15 AM 48.2 °F - 46.4 °F 93% 29.74 in 10.0 mi South 9.2 mph 16.1 mph 0.00 in   Overcast
1:35 AM 48.2 °F - 44.6 °F 87% 29.75 in 10.0 mi SE 12.7 mph 16.1 mph 0.00 in   Overcast
1:55 AM 48.2 °F - 44.6 °F 87% 29.75 in 10.0 mi SSE 9.2 mph 16.1 mph 0.00 in   Overcast
2:15 AM 48.2 °F - 44.6 °F 87% 29.75 in 10.0 mi SSE 10.4 mph 18.4 mph 0.00 in   Overcast
2:55 AM 48.2 °F - 44.6 °F 87% 29.76 in 10.0 mi South 16.1 mph 28.8 mph 0.00 in   Overcast
3:15 AM 46.4 °F 40.4 °F 44.6 °F 93% 29.77 in 10.0 mi SSE 13.8 mph 18.4 mph 0.00 in   Overcast
3:35 AM 46.4 °F 40.4 °F 44.6 °F 93% 29.78 in 10.0 mi South 13.8 mph 26.5 mph 0.00 in   Mostly Cloudy
3:55 AM 46.4 °F 40.1 °F 44.6 °F 93% 29.81 in 8.0 mi South 15.0 mph 23.0 mph 0.00 in   Mostly Cloudy
4:15 AM 46.4 °F 41.1 °F 46.4 °F 100% 29.82 in 8.0 mi South 11.5 mph 17.3 mph 0.00 in   Overcast
4:35 AM 46.4 °F 41.9 °F 46.4 °F 100% 29.83 in 10.0 mi South 9.2 mph - 0.00 in   Mostly Cloudy
4:55 AM 46.4 °F 41.9 °F 46.4 °F 100% 29.86 in 10.0 mi SSW 9.2 mph - 0.00 in   Mostly Cloudy
5:15 AM 46.4 °F 42.9 °F 46.4 °F 100% 29.87 in 10.0 mi South 6.9 mph - 0.00 in   Overcast
5:35 AM 46.4 °F 44.3 °F 46.4 °F 100% 29.87 in 10.0 mi South 4.6 mph - 0.00 in   Overcast
5:55 AM 46.4 °F 43.5 °F 44.6 °F 93% 29.87 in 10.0 mi SSE 5.8 mph - 0.00 in   Mostly Cloudy
6:15 AM 44.6 °F 41.4 °F 44.6 °F 100% 29.88 in 10.0 mi ESE 5.8 mph - 0.00 in   Overcast
6:35 AM 44.6 °F 42.2 °F 44.6 °F 100% 29.88 in 10.0 mi East 4.6 mph - 0.00 in   Overcast
6:55 AM 44.6 °F 42.2 °F 44.6 °F 100% 29.88 in 10.0 mi ESE 4.6 mph - 0.00 in   Overcast
7:15 AM 42.8 °F 40.1 °F 42.8 °F 100% 29.89 in 10.0 mi ESE 4.6 mph - 0.00 in   Mostly Cloudy
7:35 AM 42.8 °F 39.3 °F 42.8 °F 100% 29.90 in 10.0 mi East 5.8 mph - 0.00 in   Overcast
7:55 AM 44.6 °F 43.1 °F 44.6 °F 100% 29.92 in 10.0 mi East 3.5 mph - 0.00 in   Overcast
8:15 AM 44.6 °F 42.2 °F 44.6 °F 100% 29.94 in 10.0 mi East 4.6 mph - 0.00 in   Mostly Cloudy
8:35 AM 44.6 °F - 44.6 °F 100% 29.94 in 10.0 mi Calm Calm - 0.00 in   Partly Cloudy
8:55 AM 46.4 °F 43.5 °F 46.4 °F 100% 29.94 in 10.0 mi SE 5.8 mph - 0.00 in   Scattered Clouds
9:35 AM 46.4 °F 42.4 °F 46.4 °F 100% 29.96 in 10.0 mi SE 8.1 mph - 0.00 in   Partly Cloudy
9:55 AM 46.4 °F 42.4 °F 46.4 °F 100% 29.97 in 10.0 mi SE 8.1 mph - 0.00 in   Clear
10:15 AM 48.2 °F - 46.4 °F 93% 29.98 in 10.0 mi SE 8.1 mph - 0.00 in   Scattered Clouds
10:35 AM 48.2 °F - 46.4 °F 93% 29.99 in 10.0 mi ESE 6.9 mph - 0.00 in   Mostly Cloudy
10:55 AM 48.2 °F - 46.4 °F 93% 30.00 in 10.0 mi ESE 8.1 mph - 0.00 in   Overcast
11:15 AM 48.2 °F - 46.4 °F 93% 30.00 in 10.0 mi ESE 9.2 mph - 0.00 in   Overcast
11:35 AM 48.2 °F - 46.4 °F 93% 30.00 in 10.0 mi ESE 8.1 mph - 0.00 in   Overcast
11:55 AM 48.2 °F - 46.4 °F 93% 30.00 in 10.0 mi SE 10.4 mph - 0.00 in   Mostly Cloudy
12:15 PM 48.2 °F - 46.4 °F 93% 30.00 in 10.0 mi SE 8.1 mph - 0.00 in   Mostly Cloudy
12:35 PM 50.0 °F - 46.4 °F 87% 29.99 in 10.0 mi ESE 10.4 mph - 0.00 in   Overcast
12:55 PM 48.2 °F - 46.4 °F 93% 29.99 in 10.0 mi ESE 10.4 mph - 0.00 in   Overcast
1:15 PM 48.2 °F - 46.4 °F 93% 29.98 in 10.0 mi ESE 8.1 mph - 0.00 in   Overcast
1:35 PM 48.2 °F - 46.4 °F 93% 29.98 in 10.0 mi SE 8.1 mph - 0.00 in   Overcast
1:55 PM 48.2 °F - 46.4 °F 93% 29.98 in 10.0 mi SE 9.2 mph - 0.00 in   Overcast
2:15 PM 48.2 °F - 46.4 °F 93% 29.96 in 10.0 mi ESE 8.1 mph - 0.00 in   Overcast
2:35 PM 48.2 °F - 46.4 °F 93% 29.95 in 10.0 mi ESE 10.4 mph - 0.00 in   Overcast
2:55 PM 48.2 °F - 44.6 °F 87% 29.95 in 10.0 mi ESE 10.4 mph 18.4 mph 0.00 in   Overcast
3:15 PM 48.2 °F - 44.6 °F 87% 29.94 in 10.0 mi ESE 10.4 mph - 0.00 in   Overcast
3:35 PM 48.2 °F - 44.6 °F 87% 29.94 in 10.0 mi ESE 6.9 mph - 0.00 in   Overcast
3:55 PM 48.2 °F - 44.6 °F 87% 29.93 in 10.0 mi ESE 9.2 mph - 0.00 in   Overcast
4:15 PM 48.2 °F - 44.6 °F 87% 29.92 in 10.0 mi East 8.1 mph - 0.00 in   Overcast
4:35 PM 48.2 °F - 44.6 °F 87% 29.91 in 10.0 mi ESE 10.4 mph - 0.00 in   Overcast
4:55 PM 48.2 °F - 44.6 °F 87% 29.90 in 10.0 mi East 11.5 mph - 0.00 in   Overcast
5:15 PM 48.2 °F - 44.6 °F 87% 29.90 in 10.0 mi ESE 10.4 mph - 0.00 in   Overcast
5:35 PM 48.2 °F - 46.4 °F 93% 29.89 in 10.0 mi SE 12.7 mph - 0.00 in   Overcast
5:55 PM 48.2 °F - 46.4 °F 93% 29.88 in 10.0 mi SE 10.4 mph - 0.00 in   Overcast
6:15 PM 50.0 °F - 46.4 °F 87% 29.88 in 10.0 mi SE 8.1 mph - 0.00 in   Overcast
6:35 PM 50.0 °F - 46.4 °F 87% 29.87 in 10.0 mi SE 12.7 mph 20.7 mph 0.00 in   Overcast
6:55 PM 51.8 °F - 46.4 °F 82% 29.87 in 10.0 mi SE 10.4 mph 19.6 mph 0.00 in   Overcast
7:15 PM 51.8 °F - 46.4 °F 82% 29.86 in 10.0 mi SSE 12.7 mph 20.7 mph 0.00 in   Overcast
7:35 PM 50.0 °F - 46.4 °F 87% 29.84 in 10.0 mi SE 11.5 mph 20.7 mph 0.00 in   Overcast
7:55 PM 50.0 °F - 46.4 °F 87% 29.84 in 10.0 mi SE 13.8 mph 19.6 mph 0.00 in   Overcast
8:15 PM 51.8 °F - 46.4 °F 82% 29.82 in 10.0 mi SE 12.7 mph - 0.00 in   Overcast
8:35 PM 51.8 °F - 46.4 °F 82% 29.81 in 10.0 mi SE 13.8 mph 27.6 mph 0.00 in   Overcast
8:55 PM 51.8 °F - 46.4 °F 82% 29.80 in 10.0 mi SE 12.7 mph 20.7 mph 0.00 in   Mostly Cloudy
9:15 PM 51.8 °F - 46.4 °F 82% 29.78 in 10.0 mi ESE 13.8 mph 20.7 mph 0.00 in   Mostly Cloudy
9:35 PM 51.8 °F - 46.4 °F 82% 29.76 in 10.0 mi SE 12.7 mph 21.9 mph 0.00 in   Overcast
10:15 PM 50.0 °F - 46.4 °F 87% 29.72 in 10.0 mi East 16.1 mph - 0.00 in   Overcast
10:35 PM 48.2 °F - 44.6 °F 87% 29.69 in 10.0 mi ENE 13.8 mph - 0.00 in   Overcast
10:55 PM 48.2 °F - 44.6 °F 87% 29.67 in 10.0 mi ENE 15.0 mph - 0.00 in   Mostly Cloudy
11:15 PM 48.2 °F - 44.6 °F 87% 29.66 in 10.0 mi East 9.2 mph - 0.00 in   Overcast
11:35 PM 48.2 °F - 44.6 °F 87% 29.64 in 10.0 mi East 11.5 mph - 0.00 in   Overcast
11:55 PM 48.2 °F - 44.6 °F 87% 29.62 in 10.0 mi East 9.2 mph - 0.00 in   Overcast